Regional Weather Roundup
Issued by NWS Jackson, KY

Home | Current Version | Previous Version | Graphics & Text | Print | Product List | Glossary On
Versions: 1 2 3 4 5 6 7 8 9 10 11 12 13 14 15 16 17 18 19 20 21 22 23 24 25 26 27 28 29 30 31 32 33 34 35 36 37 38 39 40 41 42 43 44 45 46 47 48 49 50
000
ASUS43 KJKL 291210
RWRJKL

EAST KENTUCKY HOURLY WEATHER ROUNDUP
NATIONAL WEATHER SERVICE JACKSON KY
800 AM EDT THU SEP 29 2016

NOTE: "FAIR" INDICATES FEW OR NO CLOUDS BELOW 12,000 FEET WITH
NO SIGNIFICANT WEATHER AND/OR OBSTRUCTIONS TO VISIBILITY.

* THESE REPORTS ARE NOT UNDER NWS QUALITY CONTROL AND MAY NOT
  REPORT WEATHER SUCH AS PRECIPITATION AND FOG.

KYZ079-080-083-085-087-088-110-112-115-119-120-291300
...EASTERN KENTUCKY...

CITY           SKY/WX    TMP DP  RH WIND       PRES   REMARKS
JACKSON        CLOUDY    55  53  93 CALM      30.01R FOG
6HR MIN TEMP:  55; 6HR MAX TEMP:  57;

LONDON         CLOUDY    53  50  89 CALM      30.01S
6HR MIN TEMP:  52; 6HR MAX TEMP:  56;

SOMERSET*      FOG       52  52 100 NW5       30.03R VSB 1/2
MONTICELLO*    PTCLDY    51  51 100 W12       30.04R
6HR MIN TEMP:  50; 6HR MAX TEMP:  55;

WILLIAMSBURG*  CLOUDY    50  50 100 CALM      30.01F VSB 1/4
MIDDLESBORO*   CLOUDY    56  55  94 CALM      30.01R
6HR MIN TEMP:  56; 6HR MAX TEMP:  59; 6HR PCP:  0.05;

HARLAN APT*    CLOUDY    55  54  94 CALM      30.01R
PIKE CO APT*   FOG       55  55 100 N3        30.00R VSB 1/4
BIG SANDY APT* CLOUDY    56  56 100 CALM      30.01R
6HR MIN TEMP:  56; 6HR MAX TEMP:  58;

MOREHEAD APT*  FOG       50  48  93 CALM      30.04R VSB<1/4
ASHLAND*       CLOUDY    57  55  94 CALM      30.01R
$$

KYZ035-036-041-042-044-050-067-078-099-291300
...CENTRAL KENTUCKY...

CITY           SKY/WX    TMP DP  RH WIND       PRES   REMARKS
MT STERLING*   CLOUDY   N/A N/A N/A NW3       30.03R FOG
FLEMING/MASON* CLOUDY    52  51  98 CALM      30.03R FOG
DANVILLE*      CLOUDY    52  50  93 CALM      30.04R
LEXINGTON      CLOUDY    53  51  93 CALM      30.03R FOG
6HR MIN TEMP:  48; 6HR MAX TEMP:  53;

FRANKFORT      CLOUDY    53  50  89 CALM      30.01R
6HR MIN TEMP:  49; 6HR MAX TEMP:  53;

LOUISVILLE     CLOUDY    54  50  86 W3        30.02R
6HR MIN TEMP:  53; 6HR MAX TEMP:  56;

LEBANON*         N/A     50  48  93 CALM      30.03R
GLASGOW*       CLEAR    N/A N/A N/A CALM      30.04R HAZE
BOWLING GREEN  CLOUDY    49  45  86 CALM      30.05R
6HR MIN TEMP:  48; 6HR MAX TEMP:  52;

$$

KYZ091>093-OHZ055-061-077-WVZ005-015-034-035-042-291300
...SOUTHERN OHIO/WEST VIRGINIA...

CITY           SKY/WX    TMP DP  RH WIND       PRES   REMARKS
COVINGTON      CLOUDY    54  53  97 CALM      30.02R FOG
COLUMBUS       CLOUDY    58  57  97 E3        30.04R
DAYTON         FOG       53  53 100 E6        30.04R VSB 1
WILMINGTON     CLOUDY    52  51  97 SE5       30.03R
HUNTINGTON     CLOUDY    59  56  89 N6        29.99F FOG
CHARLESTON     LGT RAIN  57  54  89 NE5       30.01R FOG
PINEVILLE*     LGT RAIN  55  52  89 MISG      30.05S
BECKLEY        CLOUDY    54  50  86 E5        30.03S
BLUEFIELD      CLOUDY    53  50  89 E5        30.03R
LOGAN CO APT*  CLOUDY    57  54  88 CALM      30.00R
$$

VAZ002-007-008-TNZ017-027-036-066-071-291300
...SOUTHWEST VIRGINIA/EAST TENNESSEE...

CITY           SKY/WX    TMP DP  RH WIND       PRES   REMARKS
WISE*          CLOUDY    54  50  87 CALM      30.02R
JONESVILLE*    FOG       55  55 100 CALM      30.01R VSB<1/4
ABINGDON*      MOCLDY    56  52  86 E7        29.99S
BRISTOL        CLOUDY    55  52  89 CALM      29.98R
MORRISTOWN*    MOSUNNY   55  54  94 CALM      29.97R
SEVIERVILLE*   SUNNY     52  50  93 CALM      29.97S
KNOXVILLE      CLOUDY    60  54  80 NW3       29.97R
OAK RIDGE      CLOUDY    60  54  80 VRB3      30.00R
CROSSVILLE     PTCLDY    50  48  93 NW7       30.03S
NASHVILLE      PTCLDY    51  46  83 W3        30.07R
$$

...KEY TO REMARKS...
VSB - VISIBILITY IN MILES
WCI - WIND CHILL INDEX
HX  - HEAT INDEX

$$



USA.gov is the U.S. government's official web portal to all federal, state and local government web resources and services.